Location: Township of Marena
(38.1747°N, 99.6798°W)
Time: 03:38:56
(UTC+00:00)

Cosmos 883 Rocket - Pass Details

Date: 26 October 2020
Orbit: 950 x 995 km, 83.0° (Epoch: 24 November)

Event Time Altitude Azimuth Distance (km) Brightness Sun altitude
Rises 01:53:53 0° 183° (S) 3,647 7.5 -25.6°
Reaches altitude 10° 01:56:23 10° 183° (S) 2,698 6.8 -26.1°
Maximum altitude 02:02:33 86° 97° (E) 967 4.3 -27.3°
Drops below altitude 10° 02:08:43 10° 8° (N) 2,689 6.8 -28.5°
Sets 02:11:12 0° 8° (N) 3,635 7.5 -29.0°
